﻿測定場所 (Monitoring sites),日付 (Measurement date),時間 (Measurement time),線量率 最大値 (max) μGy/h,線量率 最小値 (min) μGy/h,線量率 平均値 (average) μGy/h,
大田 (Ota),2012-07-08,23:01～24:00,0.0609,0.0523,0.0557,
大田 (Ota),2012-07-08,22:01～23:00,0.0602,0.0520,0.0561,
大田 (Ota),2012-07-08,21:01～22:00,0.0605,0.0524,0.0561,
大田 (Ota),2012-07-08,20:01～21:00,0.0594,0.0516,0.0562,
大田 (Ota),2012-07-08,19:01～20:00,0.0607,0.0514,0.0560,
大田 (Ota),2012-07-08,18:01～19:00,0.0597,0.0529,0.0564,
大田 (Ota),2012-07-08,17:01～18:00,0.0597,0.0528,0.0563,
大田 (Ota),2012-07-08,16:01～17:00,0.0601,0.0523,0.0561,
大田 (Ota),2012-07-08,15:01～16:00,0.0595,0.0532,0.0566,
大田 (Ota),2012-07-08,14:01～15:00,0.0600,0.0521,0.0566,
大田 (Ota),2012-07-08,13:01～14:00,0.0610,0.0528,0.0567,
大田 (Ota),2012-07-08,12:01～13:00,0.0610,0.0539,0.0571,
大田 (Ota),2012-07-08,11:01～12:00,0.0617,0.0547,0.0584,
大田 (Ota),2012-07-08,10:01～11:00,0.0664,0.0557,0.0612,
大田 (Ota),2012-07-08,09:01～10:00,0.0680,0.0608,0.0644,
大田 (Ota),2012-07-08,08:01～09:00,0.0723,0.0611,0.0664,
大田 (Ota),2012-07-08,07:01～08:00,0.0742,0.0642,0.0698,
大田 (Ota),2012-07-08,06:01～07:00,0.0700,0.0607,0.0648,
大田 (Ota),2012-07-08,05:01～06:00,0.0669,0.0582,0.0624,
大田 (Ota),2012-07-08,04:01～05:00,0.0639,0.0530,0.0581,
大田 (Ota),2012-07-08,03:01～04:00,0.0598,0.0513,0.0568,
大田 (Ota),2012-07-08,02:01～03:00,0.0609,0.0521,0.0568,
大田 (Ota),2012-07-08,01:01～02:00,0.0603,0.0536,0.0567,
大田 (Ota),2012-07-08,00:01～01:00,0.0622,0.0536,0.0583,
大田 (Ota),2012-07-07,23:01～24:00,0.0641,0.0541,0.0577,
大田 (Ota),2012-07-07,22:01～23:00,0.0640,0.0548,0.0586,
大田 (Ota),2012-07-07,21:01～22:00,0.0708,0.0578,0.0639,
大田 (Ota),2012-07-07,20:01～21:00,0.0747,0.0671,0.0708,
大田 (Ota),2012-07-07,19:01～20:00,0.0704,0.0563,0.0636,
大田 (Ota),2012-07-07,18:01～19:00,0.0667,0.0588,0.0627,
大田 (Ota),2012-07-07,17:01～18:00,0.0659,0.0555,0.0601,
大田 (Ota),2012-07-07,16:01～17:00,0.0623,0.0544,0.0588,
大田 (Ota),2012-07-07,15:01～16:00,0.0601,0.0539,0.0577,
大田 (Ota),2012-07-07,14:01～15:00,0.0651,0.0557,0.0605,
大田 (Ota),2012-07-07,13:01～14:00,0.0730,0.0621,0.0670,
大田 (Ota),2012-07-07,12:01～13:00,0.0725,0.0551,0.0627,
大田 (Ota),2012-07-07,11:01～12:00,0.0612,0.0548,0.0583,
大田 (Ota),2012-07-07,10:01～11:00,0.0612,0.0542,0.0574,
大田 (Ota),2012-07-07,09:01～10:00,0.0604,0.0539,0.0574,
大田 (Ota),2012-07-07,08:01～09:00,0.0612,0.0549,0.0574,
大田 (Ota),2012-07-07,07:01～08:00,0.0612,0.0533,0.0575,
大田 (Ota),2012-07-07,06:01～07:00,0.0641,0.0548,0.0594,
大田 (Ota),2012-07-07,05:01～06:00,0.0640,0.0552,0.0599,
大田 (Ota),2012-07-07,04:01～05:00,0.0670,0.0546,0.0610,
大田 (Ota),2012-07-07,03:01～04:00,0.0619,0.0541,0.0579,
大田 (Ota),2012-07-07,02:01～03:00,0.0682,0.0561,0.0623,
大田 (Ota),2012-07-07,01:01～02:00,0.0825,0.0651,0.0725,
大田 (Ota),2012-07-07,00:01～01:00,0.0773,0.0709,0.0734,
大田 (Ota),2012-07-06,23:01～24:00,0.0762,0.0630,0.0706,
大田 (Ota),2012-07-06,22:01～23:00,0.0664,0.0553,0.0597,
大田 (Ota),2012-07-06,21:01～22:00,0.0637,0.0525,0.0585,
大田 (Ota),2012-07-06,20:01～21:00,0.0632,0.0560,0.0598,
大田 (Ota),2012-07-06,19:01～20:00,0.0640,0.0547,0.0604,
大田 (Ota),2012-07-06,18:01～19:00,0.0645,0.0537,0.0593,
大田 (Ota),2012-07-06,17:01～18:00,0.0632,0.0544,0.0576,
大田 (Ota),2012-07-06,16:01～17:00,0.0615,0.0538,0.0575,
大田 (Ota),2012-07-06,15:01～16:00,0.0618,0.0558,0.0589,
大田 (Ota),2012-07-06,14:01～15:00,0.0627,0.0544,0.0584,
大田 (Ota),2012-07-06,13:01～14:00,0.0618,0.0543,0.0580,
大田 (Ota),2012-07-06,12:01～13:00,0.0605,0.0529,0.0573,
大田 (Ota),2012-07-06,11:01～12:00,0.0603,0.0530,0.0571,
大田 (Ota),2012-07-06,10:01～11:00,0.0601,0.0550,0.0574,
大田 (Ota),2012-07-06,09:01～10:00,0.0607,0.0533,0.0572,
大田 (Ota),2012-07-06,08:01～09:00,0.0622,0.0551,0.0580,
大田 (Ota),2012-07-06,07:01～08:00,0.0643,0.0555,0.0593,
大田 (Ota),2012-07-06,06:01～07:00,0.0690,0.0591,0.0634,
大田 (Ota),2012-07-06,05:01～06:00,0.0676,0.0544,0.0604,
大田 (Ota),2012-07-06,04:01～05:00,0.0621,0.0544,0.0577,
大田 (Ota),2012-07-06,03:01～04:00,0.0622,0.0549,0.0583,
大田 (Ota),2012-07-06,02:01～03:00,0.0672,0.0568,0.0618,
大田 (Ota),2012-07-06,01:01～02:00,0.0738,0.0613,0.0678,
大田 (Ota),2012-07-06,00:01～01:00,0.0670,0.0551,0.0595,
大田 (Ota),2012-07-05,23:01～24:00,0.0610,0.0546,0.0578,
大田 (Ota),2012-07-05,22:01～23:00,0.0623,0.0539,0.0581,
大田 (Ota),2012-07-05,21:01～22:00,0.0618,0.0538,0.0577,
大田 (Ota),2012-07-05,20:01～21:00,0.0622,0.0554,0.0579,
大田 (Ota),2012-07-05,19:01～20:00,0.0614,0.0542,0.0576,
大田 (Ota),2012-07-05,18:01～19:00,0.0621,0.0555,0.0580,
大田 (Ota),2012-07-05,17:01～18:00,0.0616,0.0534,0.0580,
大田 (Ota),2012-07-05,16:01～17:00,0.0614,0.0547,0.0578,
大田 (Ota),2012-07-05,15:01～16:00,0.0604,0.0539,0.0569,
大田 (Ota),2012-07-05,14:01～15:00,0.0610,0.0545,0.0574,
大田 (Ota),2012-07-05,13:01～14:00,0.0610,0.0539,0.0575,
大田 (Ota),2012-07-05,12:01～13:00,0.0614,0.0544,0.0575,
大田 (Ota),2012-07-05,11:01～12:00,0.0615,0.0540,0.0574,
大田 (Ota),2012-07-05,10:01～11:00,0.0613,0.0540,0.0581,
大田 (Ota),2012-07-05,09:01～10:00,0.0612,0.0547,0.0576,
大田 (Ota),2012-07-05,08:01～09:00,0.0609,0.0520,0.0575,
大田 (Ota),2012-07-05,07:01～08:00,0.0609,0.0549,0.0580,
大田 (Ota),2012-07-05,06:01～07:00,0.0614,0.0539,0.0577,
大田 (Ota),2012-07-05,05:01～06:00,0.0617,0.0548,0.0580,
大田 (Ota),2012-07-05,04:01～05:00,0.0618,0.0517,0.0577,
大田 (Ota),2012-07-05,03:01～04:00,0.0621,0.0542,0.0574,
大田 (Ota),2012-07-05,02:01～03:00,0.0624,0.0545,0.0577,
大田 (Ota),2012-07-05,01:01～02:00,0.0604,0.0541,0.0580,
大田 (Ota),2012-07-05,00:01～01:00,0.0612,0.0549,0.0580,
大田 (Ota),2012-07-04,23:01～24:00,0.0643,0.0553,0.0582,
大田 (Ota),2012-07-04,22:01～23:00,0.0617,0.0526,0.0571,
大田 (Ota),2012-07-04,21:01～22:00,0.0600,0.0542,0.0571,
大田 (Ota),2012-07-04,20:01～21:00,0.0592,0.0539,0.0571,
大田 (Ota),2012-07-04,19:01～20:00,0.0616,0.0540,0.0569,
大田 (Ota),2012-07-04,18:01～19:00,0.0613,0.0544,0.0571,
大田 (Ota),2012-07-04,17:01～18:00,0.0603,0.0534,0.0569,
大田 (Ota),2012-07-04,16:01～17:00,0.0625,0.0529,0.0578,
大田 (Ota),2012-07-04,15:01～16:00,0.0617,0.0542,0.0573,
大田 (Ota),2012-07-04,14:01～15:00,0.0602,0.0535,0.0572,
大田 (Ota),2012-07-04,13:01～14:00,0.0601,0.0531,0.0571,
大田 (Ota),2012-07-04,12:01～13:00,0.0598,0.0523,0.0569,
大田 (Ota),2012-07-04,11:01～12:00,0.0603,0.0531,0.0566,
大田 (Ota),2012-07-04,10:01～11:00,0.0597,0.0523,0.0568,
大田 (Ota),2012-07-04,09:01～10:00,0.0605,0.0525,0.0567,
大田 (Ota),2012-07-04,08:01～09:00,0.0600,0.0543,0.0569,
大田 (Ota),2012-07-04,07:01～08:00,0.0608,0.0540,0.0569,
大田 (Ota),2012-07-04,06:01～07:00,0.0596,0.0541,0.0567,
大田 (Ota),2012-07-04,05:01～06:00,0.0613,0.0529,0.0573,
大田 (Ota),2012-07-04,04:01～05:00,0.0612,0.0545,0.0578,
大田 (Ota),2012-07-04,03:01～04:00,0.0619,0.0552,0.0582,
大田 (Ota),2012-07-04,02:01～03:00,0.0609,0.0538,0.0572,
大田 (Ota),2012-07-04,01:01～02:00,0.0618,0.0527,0.0578,
大田 (Ota),2012-07-04,00:01～01:00,0.0626,0.0538,0.0580,
大田 (Ota),2012-07-03,23:01～24:00,0.0628,0.0540,0.0586,
大田 (Ota),2012-07-03,22:01～23:00,0.0626,0.0557,0.0587,
大田 (Ota),2012-07-03,21:01～22:00,0.0675,0.0572,0.0614,
大田 (Ota),2012-07-03,20:01～21:00,0.0733,0.0633,0.0679,
大田 (Ota),2012-07-03,19:01～20:00,0.0790,0.0658,0.0718,
大田 (Ota),2012-07-03,18:01～19:00,0.0804,0.0671,0.0735,
大田 (Ota),2012-07-03,17:01～18:00,0.0768,0.0648,0.0699,
大田 (Ota),2012-07-03,16:01～17:00,0.0739,0.0636,0.0680,
大田 (Ota),2012-07-03,15:01～16:00,0.0785,0.0662,0.0727,
大田 (Ota),2012-07-03,14:01～15:00,0.0741,0.0578,0.0669,
大田 (Ota),2012-07-03,13:01～14:00,0.0629,0.0542,0.0581,
大田 (Ota),2012-07-03,12:01～13:00,0.0636,0.0548,0.0573,
大田 (Ota),2012-07-03,11:01～12:00,0.0596,0.0530,0.0570,
大田 (Ota),2012-07-03,10:01～11:00,0.0605,0.0533,0.0572,
大田 (Ota),2012-07-03,09:01～10:00,0.0612,0.0532,0.0570,
大田 (Ota),2012-07-03,08:01～09:00,0.0627,0.0529,0.0570,
大田 (Ota),2012-07-03,07:01～08:00,0.0606,0.0535,0.0569,
大田 (Ota),2012-07-03,06:01～07:00,0.0612,0.0528,0.0571,
大田 (Ota),2012-07-03,05:01～06:00,0.0595,0.0528,0.0568,
大田 (Ota),2012-07-03,04:01～05:00,0.0593,0.0533,0.0562,
大田 (Ota),2012-07-03,03:01～04:00,0.0614,0.0540,0.0568,
大田 (Ota),2012-07-03,02:01～03:00,0.0611,0.0531,0.0568,
大田 (Ota),2012-07-03,01:01～02:00,0.0603,0.0526,0.0564,
大田 (Ota),2012-07-03,00:01～01:00,0.0607,0.0532,0.0566,
大田 (Ota),2012-07-02,23:01～24:00,0.0603,0.0536,0.0570,
大田 (Ota),2012-07-02,22:01～23:00,0.0613,0.0528,0.0566,
大田 (Ota),2012-07-02,21:01～22:00,0.0600,0.0546,0.0570,
大田 (Ota),2012-07-02,20:01～21:00,0.0599,0.0526,0.0562,
大田 (Ota),2012-07-02,19:01～20:00,0.0608,0.0534,0.0567,
大田 (Ota),2012-07-02,18:01～19:00,0.0595,0.0523,0.0566,
大田 (Ota),2012-07-02,17:01～18:00,0.0607,0.0540,0.0570,
大田 (Ota),2012-07-02,16:01～17:00,0.0601,0.0538,0.0568,
大田 (Ota),2012-07-02,15:01～16:00,0.0608,0.0533,0.0566,
大田 (Ota),2012-07-02,14:01～15:00,0.0598,0.0532,0.0567,
大田 (Ota),2012-07-02,13:01～14:00,0.0604,0.0529,0.0567,
大田 (Ota),2012-07-02,12:01～13:00,0.0614,0.0534,0.0574,
大田 (Ota),2012-07-02,11:01～12:00,0.0616,0.0527,0.0568,
大田 (Ota),2012-07-02,10:01～11:00,0.0608,0.0528,0.0572,
大田 (Ota),2012-07-02,09:01～10:00,0.0614,0.0535,0.0575,
大田 (Ota),2012-07-02,08:01～09:00,0.0607,0.0528,0.0572,
大田 (Ota),2012-07-02,07:01～08:00,0.0605,0.0532,0.0568,
大田 (Ota),2012-07-02,06:01～07:00,0.0615,0.0542,0.0575,
大田 (Ota),2012-07-02,05:01～06:00,0.0634,0.0549,0.0587,
大田 (Ota),2012-07-02,04:01～05:00,0.0630,0.0558,0.0589,
大田 (Ota),2012-07-02,03:01～04:00,0.0626,0.0551,0.0592,
大田 (Ota),2012-07-02,02:01～03:00,0.0650,0.0571,0.0607,
大田 (Ota),2012-07-02,01:01～02:00,0.0666,0.0574,0.0613,
大田 (Ota),2012-07-02,00:01～01:00,0.0649,0.0570,0.0607,
